RYR83SL LIEO-LIPQ

Flight info

Callsign RYR83SL
Flight time 1h 2m
Altitude 34000
Route BATOX DCT MAMAR DCT AMTEL DCT CHI
Aircraft B38M/M-SDE1FGHILORVWXY/HB1

Departure

Time 2026-04-16 13:43
Airport Olbia Costa Smeralda Airport (LIEO)

Arrival

Time 2026-04-16 14:45
Airport Trieste Airport (LIPQ)
Time Latitude Longitude Altitude Speed Heading
2026-04-16 13:18 40.90265 9.51703 41 ft 0 kts 323°
2026-04-16 13:34 40.90260 9.51708 38 ft 4 kts 323°
2026-04-16 13:34 40.90240 9.51728 40 ft 4 kts 321°
2026-04-16 13:34 40.90227 9.51752 41 ft 4 kts 268°
2026-04-16 13:35 40.90236 9.51781 40 ft 3 kts 235°
2026-04-16 13:35 40.90240 9.51789 39 ft 0 kts 235°
2026-04-16 13:38 40.90235 9.51780 41 ft 4 kts 235°
2026-04-16 13:39 40.90198 9.51711 41 ft 13 kts 235°
2026-04-16 13:39 40.90142 9.51604 42 ft 15 kts 235°
2026-04-16 13:39 40.90073 9.51494 42 ft 14 kts 197°
2026-04-16 13:39 40.89973 9.51513 42 ft 16 kts 191°
2026-04-16 13:40 40.89883 9.51403 43 ft 19 kts 235°
2026-04-16 13:40 40.89803 9.51250 44 ft 21 kts 236°
2026-04-16 13:40 40.89716 9.51085 45 ft 23 kts 234°
2026-04-16 13:40 40.89623 9.50907 46 ft 24 kts 236°
2026-04-16 13:41 40.89524 9.50717 47 ft 26 kts 235°
2026-04-16 13:41 40.89436 9.50551 48 ft 21 kts 234°
2026-04-16 13:41 40.89344 9.50437 48 ft 13 kts 189°
2026-04-16 13:41 40.89280 9.50509 49 ft 13 kts 102°
2026-04-16 13:42 40.89271 9.50605 49 ft 11 kts 83°
2026-04-16 13:42 40.89320 9.50721 48 ft 22 kts 55°
2026-04-16 13:42 40.89452 9.50973 46 ft 62 kts 55°
2026-04-16 13:42 40.89847 9.51725 41 ft 136 kts 54°
2026-04-16 13:43 40.90453 9.52877 477 ft 161 kts 56°
2026-04-16 13:43 40.91092 9.54090 1414 ft 162 kts 53°
2026-04-16 13:43 40.91770 9.55345 2051 ft 175 kts 53°
2026-04-16 13:43 40.92499 9.56742 2519 ft 195 kts 53°
2026-04-16 13:44 40.93322 9.58313 2903 ft 221 kts 53°
2026-04-16 13:44 40.94254 9.60077 3416 ft 239 kts 53°
2026-04-16 13:44 40.95201 9.61862 4415 ft 238 kts 53°
2026-04-16 13:44 40.96167 9.63675 5226 ft 244 kts 53°
2026-04-16 13:45 40.97149 9.65516 6125 ft 246 kts 53°
2026-04-16 13:45 40.98142 9.67376 6962 ft 249 kts 53°
2026-04-16 13:45 40.99116 9.69340 7561 ft 264 kts 56°
2026-04-16 13:45 41.00127 9.71461 8084 ft 279 kts 56°
2026-04-16 13:46 41.01168 9.73632 8970 ft 280 kts 56°
2026-04-16 13:46 41.02219 9.75820 9782 ft 284 kts 56°
2026-04-16 13:46 41.03292 9.78049 10469 ft 292 kts 56°
2026-04-16 13:46 41.04417 9.80388 10878 ft 309 kts 57°
2026-04-16 13:47 41.05596 9.82841 11432 ft 320 kts 57°
2026-04-16 13:47 41.06794 9.85334 12289 ft 322 kts 57°
2026-04-16 13:47 41.08002 9.87850 13095 ft 326 kts 57°
2026-04-16 13:47 41.09224 9.90397 13944 ft 329 kts 57°
2026-04-16 13:48 41.10456 9.92967 14698 ft 332 kts 57°
2026-04-16 13:48 41.11705 9.95574 15454 ft 336 kts 57°
2026-04-16 13:48 41.12949 9.98174 16192 ft 341 kts 57°
2026-04-16 13:48 41.14226 10.00845 16926 ft 345 kts 57°
2026-04-16 13:49 41.15518 10.03549 17655 ft 349 kts 57°
2026-04-16 13:49 41.16825 10.06287 18359 ft 353 kts 57°
2026-04-16 13:49 41.18147 10.09062 18971 ft 357 kts 57°
2026-04-16 13:49 41.19483 10.11864 19599 ft 360 kts 57°
2026-04-16 13:50 41.20829 10.14690 20197 ft 363 kts 56°
2026-04-16 13:50 41.22389 10.17290 20779 ft 366 kts 46°
2026-04-16 13:50 41.24105 10.19870 21360 ft 369 kts 49°
2026-04-16 13:50 41.25788 10.22469 21944 ft 373 kts 49°
2026-04-16 13:51 41.27453 10.25069 22515 ft 376 kts 49°
2026-04-16 13:51 41.29152 10.27741 23087 ft 379 kts 49°
2026-04-16 13:51 41.30859 10.30434 23629 ft 383 kts 49°
2026-04-16 13:51 41.32584 10.33161 24120 ft 385 kts 49°
2026-04-16 13:52 41.34313 10.35897 24627 ft 387 kts 49°
2026-04-16 13:52 41.36043 10.38637 25133 ft 388 kts 49°
2026-04-16 13:52 41.37782 10.41395 25611 ft 389 kts 49°
2026-04-16 13:52 41.39525 10.44162 26109 ft 391 kts 49°
2026-04-16 13:53 41.41276 10.46944 26587 ft 392 kts 49°
2026-04-16 13:53 41.43029 10.49731 27060 ft 393 kts 48°
2026-04-16 13:53 41.44791 10.52536 27528 ft 395 kts 48°
2026-04-16 13:53 41.46554 10.55345 27974 ft 396 kts 48°
2026-04-16 13:54 41.48304 10.58136 28419 ft 398 kts 48°
2026-04-16 13:54 41.50081 10.60972 28856 ft 399 kts 48°
2026-04-16 13:54 41.51864 10.63820 29294 ft 401 kts 48°
2026-04-16 13:54 41.53651 10.66678 29714 ft 402 kts 48°
2026-04-16 13:55 41.55450 10.69557 30141 ft 404 kts 48°
2026-04-16 13:55 41.57251 10.72443 30485 ft 405 kts 48°
2026-04-16 13:55 41.59059 10.75344 30793 ft 408 kts 48°
2026-04-16 13:55 41.60876 10.78261 31121 ft 409 kts 48°
2026-04-16 13:56 41.62699 10.81190 31488 ft 410 kts 48°
2026-04-16 13:56 41.64522 10.84121 31918 ft 409 kts 48°
2026-04-16 13:56 41.66334 10.87039 32345 ft 408 kts 48°
2026-04-16 13:56 41.68146 10.89959 32773 ft 406 kts 48°
2026-04-16 13:57 41.69945 10.92861 33197 ft 405 kts 48°
2026-04-16 13:57 41.71740 10.95759 33602 ft 404 kts 48°
2026-04-16 13:57 41.73534 10.98658 33990 ft 404 kts 48°
2026-04-16 13:58 41.77116 11.04454 34102 ft 402 kts 48°
2026-04-16 13:58 41.78938 11.07290 34080 ft 399 kts 41°
2026-04-16 13:58 41.81173 11.09425 34082 ft 395 kts 25°
2026-04-16 13:58 41.83759 11.10678 34091 ft 397 kts 18°
2026-04-16 13:59 41.89046 11.12740 34090 ft 399 kts 16°
2026-04-16 13:59 41.94410 11.14694 34084 ft 399 kts 15°
2026-04-16 14:00 41.99788 11.16609 34081 ft 400 kts 15°
2026-04-16 14:00 42.05181 11.18525 34079 ft 401 kts 15°
2026-04-16 14:01 42.10578 11.20444 34081 ft 402 kts 15°
2026-04-16 14:01 42.15994 11.22374 34078 ft 402 kts 15°
2026-04-16 14:02 42.21414 11.24309 34082 ft 403 kts 15°
2026-04-16 14:02 42.26845 11.26251 34084 ft 404 kts 15°
2026-04-16 14:03 42.32281 11.28198 34083 ft 405 kts 15°
2026-04-16 14:03 42.37700 11.30143 34084 ft 406 kts 15°
2026-04-16 14:04 42.43167 11.32108 34083 ft 406 kts 15°
2026-04-16 14:04 42.48635 11.34077 34083 ft 407 kts 15°
2026-04-16 14:05 42.54125 11.36059 34083 ft 408 kts 15°
2026-04-16 14:05 42.59601 11.38038 34082 ft 408 kts 15°
2026-04-16 14:06 42.65061 11.40015 34081 ft 409 kts 15°
2026-04-16 14:06 42.70582 11.42018 34085 ft 409 kts 15°
2026-04-16 14:07 42.76088 11.44019 34088 ft 410 kts 15°
2026-04-16 14:07 42.81611 11.46030 34074 ft 411 kts 15°
2026-04-16 14:08 42.87138 11.48046 34090 ft 412 kts 15°
2026-04-16 14:08 42.92642 11.50058 34086 ft 412 kts 15°
2026-04-16 14:09 42.98199 11.52092 34091 ft 413 kts 15°
2026-04-16 14:09 43.03765 11.54134 34094 ft 414 kts 15°
2026-04-16 14:10 43.09333 11.56181 34091 ft 415 kts 15°
2026-04-16 14:10 43.14921 11.58237 34093 ft 416 kts 15°
2026-04-16 14:11 43.20483 11.60288 34098 ft 417 kts 15°
2026-04-16 14:11 43.26103 11.62274 34098 ft 417 kts 14°
2026-04-16 14:12 43.31726 11.64257 34097 ft 418 kts 14°
2026-04-16 14:12 43.37350 11.66246 34101 ft 418 kts 14°
2026-04-16 14:13 43.42992 11.68245 34109 ft 419 kts 14°
2026-04-16 14:13 43.48636 11.70249 34110 ft 419 kts 14°
2026-04-16 14:14 43.54288 11.72259 34112 ft 419 kts 14°
2026-04-16 14:14 43.59901 11.74259 34119 ft 420 kts 14°
2026-04-16 14:15 43.65560 11.76279 34126 ft 420 kts 14°
2026-04-16 14:15 43.71229 11.78307 34126 ft 420 kts 14°
2026-04-16 14:16 43.76891 11.80338 34130 ft 421 kts 14°
2026-04-16 14:16 43.81618 11.82036 34132 ft 421 kts 14°
2026-04-16 14:17 43.88256 11.84423 34140 ft 421 kts 14°
2026-04-16 14:17 43.93894 11.86456 34140 ft 421 kts 14°
2026-04-16 14:18 43.99570 11.88507 34135 ft 422 kts 14°
2026-04-16 14:18 44.04335 11.90231 34132 ft 423 kts 14°
2026-04-16 14:19 44.10013 11.92291 34131 ft 424 kts 14°
2026-04-16 14:19 44.15743 11.94372 34133 ft 426 kts 13°
2026-04-16 14:20 44.21447 11.96449 34129 ft 426 kts 13°
2026-04-16 14:20 44.27228 11.98558 34123 ft 427 kts 13°
2026-04-16 14:21 44.30051 11.99589 34130 ft 415 kts 13°
2026-04-16 14:21 44.32827 12.00604 33993 ft 404 kts 13°
2026-04-16 14:21 44.35525 12.01591 33570 ft 399 kts 13°
2026-04-16 14:21 44.38202 12.02572 33052 ft 398 kts 13°
2026-04-16 14:22 44.40881 12.03555 32552 ft 396 kts 13°
2026-04-16 14:22 44.43535 12.04530 32117 ft 393 kts 13°
2026-04-16 14:22 44.46174 12.05499 31677 ft 390 kts 13°
2026-04-16 14:22 44.48783 12.06459 31235 ft 388 kts 13°
2026-04-16 14:23 44.51393 12.07420 30802 ft 385 kts 13°
2026-04-16 14:23 44.53982 12.08374 30369 ft 383 kts 13°
2026-04-16 14:23 44.56554 12.09323 29895 ft 381 kts 13°
2026-04-16 14:23 44.59113 12.10268 29432 ft 378 kts 13°
2026-04-16 14:24 44.61615 12.11192 29021 ft 374 kts 13°
2026-04-16 14:24 44.64134 12.12123 28620 ft 371 kts 14°
2026-04-16 14:24 44.66621 12.13043 28221 ft 367 kts 14°
2026-04-16 14:24 44.69081 12.13955 27824 ft 364 kts 13°
2026-04-16 14:25 44.71520 12.14859 27437 ft 361 kts 14°
2026-04-16 14:25 44.73943 12.15758 27054 ft 359 kts 14°
2026-04-16 14:25 44.76348 12.16651 26682 ft 356 kts 14°
2026-04-16 14:25 44.78740 12.17540 26313 ft 353 kts 14°
2026-04-16 14:26 44.81109 12.18423 25942 ft 351 kts 14°
2026-04-16 14:26 44.83458 12.19297 25579 ft 349 kts 13°
2026-04-16 14:26 44.85766 12.20157 25225 ft 347 kts 14°
2026-04-16 14:26 44.88103 12.21029 24814 ft 347 kts 14°
2026-04-16 14:27 44.90458 12.21907 24385 ft 354 kts 14°
2026-04-16 14:27 44.92855 12.22802 23997 ft 358 kts 14°
2026-04-16 14:27 44.95297 12.23715 23582 ft 358 kts 14°
2026-04-16 14:27 44.97666 12.24602 23147 ft 357 kts 14°
2026-04-16 14:28 45.00060 12.25499 22745 ft 354 kts 14°
2026-04-16 14:28 45.02428 12.26386 22365 ft 351 kts 14°
2026-04-16 14:28 45.04764 12.27319 22133 ft 347 kts 20°
2026-04-16 14:28 45.06853 12.29060 22122 ft 353 kts 40°
2026-04-16 14:29 45.08444 12.31711 22129 ft 357 kts 55°
2026-04-16 14:29 45.09772 12.34693 22129 ft 358 kts 56°
2026-04-16 14:29 45.11094 12.37681 22130 ft 358 kts 56°
2026-04-16 14:29 45.12422 12.40683 22128 ft 359 kts 56°
2026-04-16 14:30 45.13744 12.43677 22127 ft 359 kts 56°
2026-04-16 14:30 45.15066 12.46673 22126 ft 359 kts 56°
2026-04-16 14:30 45.16328 12.49724 21726 ft 361 kts 58°
2026-04-16 14:30 45.17604 12.52836 20963 ft 369 kts 58°
2026-04-16 14:31 45.18942 12.55991 20204 ft 376 kts 53°
2026-04-16 14:31 45.20716 12.58663 19450 ft 380 kts 37°
2026-04-16 14:31 45.22910 12.60789 18713 ft 385 kts 33°
2026-04-16 14:31 45.25140 12.62939 17915 ft 387 kts 33°
2026-04-16 14:32 45.27334 12.65082 17117 ft 379 kts 33°
2026-04-16 14:32 45.29489 12.67199 16353 ft 372 kts 33°
2026-04-16 14:32 45.31593 12.69274 15624 ft 365 kts 33°
2026-04-16 14:32 45.33664 12.71321 14916 ft 359 kts 33°
2026-04-16 14:33 45.35694 12.73331 14238 ft 353 kts 33°
2026-04-16 14:33 45.37692 12.75310 13543 ft 347 kts 33°
2026-04-16 14:33 45.39641 12.77244 13056 ft 335 kts 34°
2026-04-16 14:33 45.41519 12.79106 12635 ft 322 kts 34°
2026-04-16 14:34 45.43331 12.80904 12164 ft 313 kts 34°
2026-04-16 14:34 45.45100 12.82664 11541 ft 310 kts 34°
2026-04-16 14:34 45.46863 12.84419 10932 ft 307 kts 34°
2026-04-16 14:34 45.48605 12.86155 10345 ft 304 kts 34°
2026-04-16 14:35 45.50324 12.87870 9752 ft 300 kts 34°
2026-04-16 14:35 45.52030 12.89574 9126 ft 297 kts 34°
2026-04-16 14:35 45.53716 12.91257 8522 ft 294 kts 35°
2026-04-16 14:35 45.55382 12.92923 7938 ft 291 kts 35°
2026-04-16 14:36 45.57029 12.94571 7411 ft 287 kts 35°
2026-04-16 14:36 45.58644 12.96187 7018 ft 278 kts 36°
2026-04-16 14:36 45.60194 12.97739 6705 ft 267 kts 36°
2026-04-16 14:36 45.61667 12.99215 6409 ft 257 kts 36°
2026-04-16 14:37 45.63124 13.00675 6121 ft 248 kts 36°
2026-04-16 14:37 45.64515 13.02072 5852 ft 243 kts 36°
2026-04-16 14:37 45.65908 13.03469 5565 ft 251 kts 36°
2026-04-16 14:37 45.67349 13.04921 5293 ft 255 kts 36°
2026-04-16 14:38 45.68801 13.06379 5008 ft 254 kts 36°
2026-04-16 14:38 45.70245 13.07834 4724 ft 253 kts 36°
2026-04-16 14:38 45.71667 13.09267 4539 ft 243 kts 36°
2026-04-16 14:38 45.73003 13.10613 4449 ft 224 kts 36°
2026-04-16 14:39 45.74210 13.11828 4360 ft 203 kts 36°
2026-04-16 14:39 45.75314 13.12941 4221 ft 186 kts 36°
2026-04-16 14:39 45.76328 13.13965 4088 ft 170 kts 36°
2026-04-16 14:39 45.77258 13.14907 3964 ft 159 kts 37°
2026-04-16 14:40 45.78183 13.15848 3912 ft 169 kts 36°
2026-04-16 14:40 45.79165 13.16837 3853 ft 176 kts 35°
2026-04-16 14:40 45.80173 13.17849 3770 ft 178 kts 37°
2026-04-16 14:40 45.81186 13.18877 3616 ft 178 kts 36°
2026-04-16 14:41 45.82174 13.19980 3424 ft 183 kts 50°
2026-04-16 14:41 45.82734 13.21611 3113 ft 185 kts 76°
2026-04-16 14:41 45.82907 13.23432 2893 ft 182 kts 86°
2026-04-16 14:41 45.82907 13.25184 2703 ft 168 kts 91°
2026-04-16 14:42 45.82906 13.26844 2496 ft 166 kts 88°
2026-04-16 14:42 45.82889 13.28478 2290 ft 165 kts 91°
2026-04-16 14:42 45.82864 13.30132 2067 ft 164 kts 89°
2026-04-16 14:42 45.82860 13.31762 1824 ft 163 kts 89°
2026-04-16 14:43 45.82852 13.33356 1634 ft 158 kts 89°
2026-04-16 14:43 45.82846 13.34892 1423 ft 148 kts 89°
2026-04-16 14:43 45.82838 13.36345 1215 ft 144 kts 90°
2026-04-16 14:43 45.82833 13.37758 1049 ft 144 kts 91°
2026-04-16 14:44 45.82831 13.39185 863 ft 142 kts 92°
2026-04-16 14:44 45.82820 13.40589 670 ft 141 kts 94°
2026-04-16 14:44 45.82808 13.41996 504 ft 142 kts 92°
2026-04-16 14:44 45.82808 13.43395 293 ft 139 kts 94°
2026-04-16 14:45 45.82801 13.44848 97 ft 148 kts 93°
2026-04-16 14:45 45.82791 13.46203 48 ft 117 kts 90°
2026-04-16 14:45 45.82786 13.47048 49 ft 68 kts 90°
2026-04-16 14:45 45.82778 13.47600 49 ft 29 kts 105°
2026-04-16 14:46 45.82671 13.47762 48 ft 20 kts 141°
2026-04-16 14:46 45.82582 13.47866 48 ft 17 kts 141°
2026-04-16 14:46 45.82485 13.47980 47 ft 19 kts 141°
2026-04-16 14:46 45.82376 13.48107 47 ft 19 kts 137°
2026-04-16 14:47 45.82343 13.48151 47 ft 7 kts 136°
2026-04-16 14:47 45.82302 13.48208 47 ft 10 kts 136°
2026-04-16 14:47 45.82261 13.48293 47 ft 11 kts 97°
2026-04-16 14:47 45.82265 13.48366 45 ft 7 kts 83°
2026-04-16 14:48 45.82270 13.48424 47 ft 5 kts 78°
2026-04-16 14:48 45.82261 13.48471 45 ft 4 kts 142°
2026-04-16 14:48 45.82228 13.48478 47 ft 6 kts 173°
2026-04-16 14:48 45.82204 13.48484 47 ft 0 kts 169°